Weather History for Cleveland, OH

Change the Weather History Date:

Friday, August 23, 2013

  Actual Average Record
Temperature  
Mean Temperature 71 °F 71 °F  
Max Temperature 81 °F 80 °F 93 °F (1954)
Min Temperature 60 °F 63 °F 48 °F (1969)
Degree Days  
Heating Degree Days 0 0  
Month to date heating degree days 4 0  
Since 1 June heating degree days 46 46  
Since 1 July heating degree days 7 4  
Cooling Degree Days 6 7  
Month to date cooling degree days 117 175  
Year to date cooling degree days 681 667  
Since 1 June cooling degree days 567 608  
Growing Degree Days 24 (Base 50)    
Moisture  
Dew Point 61 °F    
Average Humidity 65    
Maximum Humidity 84    
Minimum Humidity 45    
Precipitation  
Precipitation T in 0.11 in 0.44 in (2002)
Month to date precipitation 1.68 2.61  
Year to date precipitation 27.08 24.64  
Snow  
Snow 0.00 in 0.00 in - ()
Month to date snowfall 0.0 0.0  
Since 1 June snowfall 0.0 0.0  
Since 1 July snowfall 0.0 0.0  
Snow Depth 0.00 in    
Sea Level Pressure  
Sea Level Pressure 30.11 in    
Wind  
Wind Speed 9 mph (NNE)    
Max Wind Speed 17 mph    
Max Gust Speed 21 mph    
Visibility 10 miles    
Events Rain    
T = Trace of Precipitation, MM = Missing Value Source: NWS Daily Summary

Daily Weather History Graph

Daily Weather History Graph

Search for Another Location

Airport:

Trip Planner

Search our weather history database for the weather conditions in past years. The results will help you decide how hot, cold, wet, or windy it might be!

Date:

Astronomy

Aug. 23, 2013 Rise Set
Actual Time 6:44 AM EDT 8:14 PM EDT
Civil Twilight 6:15 AM EDT 8:43 PM EDT
Nautical Twilight 5:40 AM EDT 9:18 PM EDT
Astronomical Twilight 5:03 AM EDT 9:55 PM EDT
Moon 9:29 PM EDT (8/23) 9:41 AM EDT (8/23)
Length of Visible Light 14h 27m
Length of Day
13h 29m
Waning Gibbous, 91% of the Moon is Illuminated
Aug 23
Waning Gibbous
Aug 28
Last Quarter
Sep 5
New
Sep 12
First Quarter
Sep 19
Full

Hourly Weather History & Observations

Time (EDT) Temp. Heat Index Dew Point Humidity Pressure Visibility Wind Dir Wind Speed Gust Speed Precip Events Conditions
12:51 AM 75.0 °F - 68.0 °F 79% 30.04 in 10.0 mi NE 8.1 mph - 0.00 in Rain Light Rain
1:51 AM 73.0 °F - 66.9 °F 81% 30.04 in 10.0 mi North 6.9 mph - 0.00 in Rain Light Rain
2:51 AM 73.0 °F - 68.0 °F 84% 30.03 in 10.0 mi NE 6.9 mph - 0.00 in Rain Light Rain
3:51 AM 72.0 °F - 68.0 °F 87% 30.04 in 10.0 mi NNW 8.1 mph - 0.00 in   Overcast
4:51 AM 72.0 °F - 68.0 °F 87% 30.04 in 10.0 mi North 3.5 mph - 0.00 in Rain Light Rain
5:51 AM 72.0 °F - 68.0 °F 87% 30.05 in 10.0 mi North 4.6 mph - 0.00 in   Mostly Cloudy
6:51 AM 71.1 °F - 66.0 °F 84% 30.07 in 10.0 mi North 6.9 mph - N/A   Mostly Cloudy
7:51 AM 72.0 °F - 64.9 °F 78% 30.08 in 10.0 mi NNE 6.9 mph - N/A   Mostly Cloudy
8:51 AM 75.0 °F - 64.0 °F 69% 30.09 in 10.0 mi NNE 11.5 mph - N/A   Partly Cloudy
9:51 AM 75.0 °F - 66.0 °F 73% 30.10 in 10.0 mi NNE 13.8 mph - N/A   Mostly Cloudy
10:43 AM 77.0 °F - 64.9 °F 66% 30.13 in 10.0 mi NNE 11.5 mph - N/A   Scattered Clouds
10:51 AM 77.0 °F - 66.0 °F 69% 30.12 in 10.0 mi NNE 10.4 mph - N/A   Scattered Clouds
11:51 AM 78.1 °F - 63.0 °F 60% 30.12 in 10.0 mi North 12.7 mph - N/A   Partly Cloudy
12:51 PM 79.0 °F - 59.0 °F 50% 30.12 in 10.0 mi North 11.5 mph - N/A   Partly Cloudy
1:51 PM 80.1 °F 80.7 °F 59.0 °F 48% 30.13 in 10.0 mi North 10.4 mph - N/A   Partly Cloudy
2:51 PM 80.1 °F 80.4 °F 57.0 °F 45% 30.13 in 10.0 mi North 15.0 mph - N/A   Partly Cloudy
3:51 PM 79.0 °F - 55.0 °F 44% 30.13 in 10.0 mi NNE 15.0 mph - N/A   Clear
4:51 PM 78.1 °F - 55.9 °F 46% 30.12 in 10.0 mi North 15.0 mph - N/A   Clear
5:51 PM 77.0 °F - 57.9 °F 52% 30.13 in 10.0 mi North 15.0 mph - N/A   Clear
6:51 PM 75.0 °F - 54.0 °F 48% 30.12 in 10.0 mi NE 13.8 mph - N/A   Clear
7:51 PM 73.0 °F - 51.1 °F 46% 30.14 in 10.0 mi NNE 10.4 mph - N/A   Clear
8:51 PM 71.1 °F - 53.1 °F 53% 30.15 in 10.0 mi NNE 6.9 mph - N/A   Clear
9:51 PM 71.1 °F - 52.0 °F 51% 30.17 in 10.0 mi ENE 6.9 mph - N/A   Clear
10:51 PM 69.1 °F - 52.0 °F 54% 30.19 in 10.0 mi ENE 4.6 mph - N/A   Clear
11:51 PM 63.0 °F - 55.0 °F 75% 30.21 in 10.0 mi Calm Calm - N/A   Clear